Regional Weather Roundup
Issued by NWS

Home | Current Version | Previous Version | Text Only | Print | Product List | Glossary On
Versions: 1 2 3 4 5 6 7 8 9 10 11 12 13 14 15 16 17 18 19 20 21 22 23 24 25 26 27 28 29 30 31 32 33 34 35 36 37 38 39 40 41 42 43 44 45 46 47 48 49 50
000
ASUS45 KSLC 160710
RWRUT

UTAH REGIONAL WEATHER ROUNDUP
NATIONAL WEATHER SERVICE SALT LAKE CITY UT
1200 AM MST TUE JAN 16 2018

UTZ001>011-023>025-160800-

NORTHERN UTAH

CITY           SKY/WX    TMP DP  RH WIND       PRES   REMARKS
BRIGHAM CITY   CLEAR     37  25  63 CALM      30.33F
HILL AFB       CLEAR     37  21  52 E21G26    30.30F WCI  26
LOGAN          PTCLDY    29  22  75 W5        30.35F WCI  24
OGDEN          CLEAR     35  25  66 NW5       30.31S WCI  31
SALT LAKE CITY PTCLDY    36  28  73 SE5       30.31F WCI  32
TOOELE VALLEY  PTCLDY    32  30  93 S8        30.31F WCI  25
WENDOVER       PTCLDY    29  23  78 CALM      30.31F
HEBER CITY       N/A     27  21  80 CALM      30.36S
WEST JORDAN    PTCLDY    30  27  89 SW3       30.33S

$$

UTZ011>015-024>027-160800-

CENTRAL/NORTHEAST UTAH

CITY           SKY/WX    TMP DP  RH WIND       PRES   REMARKS
PROVO AIRPORT  PTCLDY    27  25  92 CALM      30.34S
MOAB/CANYONLAN PTCLDY    35  18  49 VRB3      30.35R
DELTA          MOCLDY    32  28  86 CALM      30.30S
PRICE          PTCLDY    33  21  61 NE15      30.35F WCI  23
ROOSEVELT      CLOUDY    32  14  47 CALM      30.48S
VERNAL         PTCLDY    24  12  60 N6        30.45S WCI  17

$$

UTZ013>016-019>022-027-160800-

SOUTHERN UTAH

CITY           SKY/WX    TMP DP  RH WIND       PRES   REMARKS
BRYCE CANYON   PTCLDY    22  20  92 SW5       30.33S WCI  16
CEDAR CITY     MOCLDY    29  27  92 N3        30.26F
MILFORD        MOCLDY    27  25  92 SW3       30.29F
ST GEORGE      SUNNY     48  35  60 CALM      30.22S
HANKSVILLE     MOCLDY    32  23  69 NW6       30.40R WCI  26
KANAB          CLEAR     39  27  60 N9        30.31F WCI  33
BLANDING         N/A     29  20  68 E5        30.34F WCI  24

$$

REGIONAL REPORTS     COLORADO/ARIZONA

CITY           SKY/WX    TMP DP  RH WIND       PRES   REMARKS
CRAIG, CO      CLEAR      5  -1  76 E5        30.46S WCI  -4
GRAND JUNCTION CLEAR     29  17  61 VRB3      30.38S
RIFLE, CO      CLEAR     23  18  81 CALM      30.41S
MONTROSE, CO   CLEAR     22  17  81 S8        30.39R WCI  12
CORTEZ, CO     PTCLDY    24  18  77 CALM      30.27S
COLORADO CITY    N/A     32  30  93 S3        30.26F
PAGE, AZ       PTCLDY    39  29  67 CALM      30.29R HAZE
GRAND CANYON   PTCLDY    35  22  58 NE6       30.29S WCI  30
KINGMAN, AZ    MOCLDY    47  33  58 E9        30.18S
FLAGSTAFF, AZ  PTCLDY    25  20  81 NE3       30.28S

$$

REGIONAL REPORTS    NEVADA/IDAHO/WYOMING

CITY           SKY/WX    TMP DP  RH WIND       PRES   REMARKS
LAS VEGAS, NV  CLOUDY    56  42  59 CALM      30.14S
ELY, NY        PTCLDY    22  18  85 S9        30.28S WCI  12
ELKO, NV       MOCLDY    31  26  82 N3        30.23S
POCATELLO, ID  CLEAR     23  21  92 N3        30.33S
BURLEY, ID     CLEAR     34  26  72 NE9G23    30.26S WCI  27
FORT BRIDGER,    N/A     15  14  95 NE7       30.43S WCI   5
EVANSTON, WY   CLEAR     20  15  81 E9        30.37F WCI   9
ROCK SPRINGS,  PTCLDY    13   5  70 NE3       30.43F

$$



USA.gov is the U.S. government's official web portal to all federal, state and local government web resources and services.